Weather History for Alexandria, Egypt

Change the Weather History Date:

Saturday, November 16, 2013

  Actual Average Record
Temperature  
Mean Temperature 66 °F -  
Max Temperature 76 °F 68 °F 80 °F (2012)
Min Temperature 55 °F 53 °F 53 °F (1997)
Growing Degree Days 16 (Base 50)    
Moisture  
Dew Point 59 °F    
Average Humidity 78    
Maximum Humidity 100    
Minimum Humidity 51    
Precipitation  
Precipitation 0.00 in 0.05 in - ()
Sea Level Pressure  
Sea Level Pressure 30.00 in    
Wind  
Wind Speed 3 mph ()    
Max Wind Speed 14 mph    
Max Gust Speed -    
Visibility 5.0 miles    
Events      
Averages and records for this station are not official NWS values.
T = Trace of Precipitation, MM = Missing Value Source: Averaged Metar Reports

Daily Weather History Graph

Daily Weather History Graph

Search for Another Location

Airport:

Trip Planner

Search our weather history database for the weather conditions in past years. The results will help you decide how hot, cold, wet, or windy it might be!

Date:

Astronomy

Nov. 16, 2013 Rise Set
Actual Time 6:28 AM EET 5:01 PM EET
Civil Twilight 6:02 AM EET 5:27 PM EET
Nautical Twilight 5:33 AM EET 5:56 PM EET
Astronomical Twilight 5:04 AM EET 6:25 PM EET
Moon 4:20 PM EET 5:09 AM EET
Length of Visible Light 11h 24m
Length of Day
10h 33m
Waxing Gibbous, 99% of the Moon is Illuminated
Nov 16
Waxing Gibbous
Nov 17
Full
Nov 25
Last Quarter
Dec 3
New
Dec 9
First Quarter

Hourly Weather History & Observations

Time (EET) Temp. Dew Point Humidity Pressure Visibility Wind Dir Wind Speed Gust Speed Precip Events Conditions
12:00 AM 60.8 °F 59.0 °F 94% 29.98 in 3.7 mi Calm Calm - N/A   Unknown
1:00 AM 59.0 °F 57.2 °F 94% 29.98 in 3.7 mi Calm Calm - N/A   Unknown
2:00 AM 58 °F 57 °F 97% 29.98 in 4 mi Calm Calm - -   Mist
2:00 AM 59.0 °F 57.2 °F 94% 29.98 in 3.7 mi Calm Calm - N/A   Unknown
3:00 AM 57.2 °F 55.4 °F 94% 29.95 in 3.7 mi Calm Calm - N/A   Unknown
4:00 AM 57.2 °F 57.2 °F 100% 29.98 in 3.7 mi Calm Calm - N/A   Scattered Clouds
5:00 AM 56 °F 55 °F 96% 29.98 in 4 mi Calm Calm - -   Mist
5:00 AM 55.4 °F 55.4 °F 100% 29.98 in 3.7 mi Calm Calm - N/A   Scattered Clouds
6:00 AM 55.4 °F 55.4 °F 100% 29.98 in 3.7 mi Calm Calm - N/A   Scattered Clouds
7:00 AM 55.4 °F 55.4 °F 100% 30.01 in 0.7 mi Calm Calm - N/A   Scattered Clouds
8:00 AM 61 °F 60 °F 97% 30.02 in 2 mi Calm Calm - -   Mist
8:00 AM 60.8 °F 60.8 °F 100% 30.01 in 1.9 mi Calm Calm - N/A   Scattered Clouds
9:00 AM 69.8 °F 62.6 °F 78% 30.04 in 3.7 mi South 2.3 mph - N/A   Scattered Clouds
10:00 AM 73.4 °F 60.8 °F 65% 30.01 in 6.2 mi SSW 5.8 mph - N/A   Scattered Clouds
11:00 AM 73.4 °F 59.0 °F 61% 30.01 in 6.2 mi NW 6.9 mph - N/A   Mostly Cloudy
12:00 PM 73.4 °F 62.6 °F 69% 30.01 in 6.2 mi NW 9.2 mph - N/A   Mostly Cloudy
1:00 PM 75.2 °F 60.8 °F 61% 30.01 in 6.2 mi NW 13.8 mph - N/A   Mostly Cloudy
2:00 PM 75 °F 60 °F 51% 29.99 in 6 mi NW 13.8 mph - -   Mostly Cloudy
2:00 PM 75.2 °F 60.8 °F 61% 29.98 in 6.2 mi NW 13.8 mph - N/A   Mostly Cloudy
2:10 PM 75.2 °F 60.8 °F 61% 29.98 in 6.2 mi NW 13.8 mph - N/A   Mostly Cloudy
3:00 PM 73.4 °F 62.6 °F 69% 29.98 in 6.2 mi NNW 11.5 mph - N/A   Mostly Cloudy
4:00 PM 73.4 °F 59.0 °F 61% 29.98 in 6.2 mi NNW 9.2 mph - N/A   Mostly Cloudy
5:00 PM 72 °F 60 °F 56% 29.99 in 6 mi NW 9.2 mph - -   Partly Cloudy
5:00 PM 71.6 °F 59.0 °F 64% 29.98 in 6.2 mi NW 9.2 mph - N/A   Scattered Clouds
6:00 PM 69.8 °F 60.8 °F 73% 29.98 in 6.2 mi North 6.9 mph - N/A   Scattered Clouds
7:00 PM 68.0 °F 62.6 °F 83% 30.01 in 6.2 mi NNE 5.8 mph - N/A   Scattered Clouds
8:00 PM 70 °F 61 °F 67% 30.02 in 6 mi North 9.2 mph - -   Partly Cloudy
8:00 PM 69.8 °F 60.8 °F 73% 30.01 in 6.2 mi North 9.2 mph - N/A   Scattered Clouds
9:00 PM 68.0 °F 60.8 °F 78% 30.01 in 6.2 mi NNW 10.4 mph - N/A   Scattered Clouds
10:00 PM 69.8 °F 59.0 °F 68% 30.01 in 6.2 mi NNW 5.8 mph - N/A   Scattered Clouds
11:00 PM 68 °F 59 °F 66% 30.01 in 6 mi NW 6.9 mph - -   Partly Cloudy
11:00 PM 68.0 °F 59.0 °F 73% 30.01 in 6.2 mi NW 6.9 mph - N/A   Scattered Clouds